Weather Roundup
Issued by NWS Chicago, IL

Home | Current Version | Previous Version | Graphics & Text | Print | Product List | Glossary On
Versions: 1 2 3 4 5 6 7 8 9 10 11 12 13 14 15 16 17 18 19 20 21 22 23 24 25 26 27 28 29 30 31 32 33 34 35 36 37 38 39 40 41 42 43 44 45 46 47 48 49 50
000
NZUS59 KLOT 170109
HRRLOT

CHICAGO AREA WEATHER ROUNDUP
NATIONAL WEATHER SERVICE CHICAGO/ROMEOVILLE IL
800 PM CDT MON OCT 16 2017

NOTE: "FAIR" INDICATES FEW OR NO CLOUDS BELOW 12,000 FEET WITH NO
SIGNIFICANT WEATHER AND/OR OBSTRUCTIONS TO VISIBILITY.

* THESE STATIONS ARE NOT UNDER NWS QUALITY CONTROL. THEY ALSO MAY NOT
  REPORT WEATHER SUCH AS PRECIPITATION OR FOG.

ILZ005-006-012>014-019>023-170200-
NORTHEAST ILLINOIS

CITY           SKY/WX    TMP DP  RH WIND       PRES   REMARKS
OHARE          CLEAR     55  37  50 SW5       30.21S
MIDWAY         CLEAR     57  37  47 SW5       30.22S
AURORA         CLEAR     47  41  80 S3        30.22F
LANSING*       CLEAR     48  43  82 CALM      30.24S
JOLIET*        CLEAR     47  43  85 CALM      30.23F
WAUKEGAN       CLEAR     45  41  86 CALM      30.20S
DUPAGE AIRPORT CLEAR     50  39  66 SW6       30.21F
WHEELING       CLEAR     54  41  61 S3        30.22S
KANKAKEE*      CLEAR     52  38  58 SW6       30.26R
MORRIS*        CLEAR     50  38  61 S3        30.23S
LEWIS AIRPORT* CLEAR     52  38  59 SW3       30.23F
NORTHERLY ISL    N/A     58  35  42 SW1         N/A
$$

WIZ051-052-058>065-066-070>072-170200-
SOUTHEAST WISCONSIN

CITY           SKY/WX    TMP DP  RH WIND       PRES   REMARKS
MILWAUKEE      CLEAR     52  38  58 S6        30.18F
KENOSHA*       CLEAR     52  37  56 S5        30.20S
RACINE*        CLEAR     49  42  77 S5        30.20F
BURLINGTON     CLEAR     44  40  85 SW3       30.19S
WAUKESHA       CLEAR     48  36  61 CALM      30.18F
WEST BEND      CLEAR     45  37  76 CALM      30.16F
$$

INZ001>003-010>013-019-020-170200-
NORTHWEST INDIANA

CITY           SKY/WX    TMP DP  RH WIND       PRES   REMARKS
GARY*          CLEAR     46  43  87 VRB3      30.24S
MICHIGAN CITY* NOT AVBL
RENSSELAER*    NOT AVBL
VALPARAISO     CLEAR     51  41  68 CALM      30.24S
$$

LMZ740>746-170200-
SOUTHERN LAKE MICHIGAN

STATION/POSITION TIME  SKY/WX   TEMP WIND        PRES    VSBY
                                AIR  DIR/SP/G
                 (UTC)          (F)  (DEG/KT/KT) (MB)    (MI)
HARRISON CRIB    0040            62  230/  9/ 12   N/A
BURNHAM HARBOR   0100            58  190/  3/  5   N/A
CALUMET HARBOR   0042            57  200/  3/  4 1022.8R
BURNS HARBOR     0040            58  200/  6/  8 1024.0S
MICHIGAN CITY    0040            57  180/  8/  9   N/A
$$

ABBREVIATIONS USED IN REMARKS
   TC - TEMPERATURE IN CELSIUS
  WCI - WIND CHILL INDEX
   HX - HEAT INDEX
  VSB - VISIBILITY
$$




USA.gov is the U.S. government's official web portal to all federal, state and local government web resources and services.